Location: Unspecified
(0.0000°N, 0.0000°E)
Time: 05:33:57
(UTC+00:00)

Vanguard 3 - Visible Passes

Search period start: 18 June 2019 00:00
Search period end: 28 June 2019 00:00
Orbit: 508 x 3263 km, 33.3° (Epoch: 17 June)

Date Brightness Start Highest point End Pass type
(mag) Time Alt. Az. Time Alt. Az. Time Alt. Az.
18 Jun 10.9 03:27:50 15° S 03:31:59 16° S 03:42:18 10° SE visible
18 Jun 8.5 19:24:34 10° N 19:27:25 18° NE 19:28:02 17° NE visible
19 Jun 11.2 02:17:56 11° SSE 02:17:56 11° SSE 02:19:58 10° SSE visible
19 Jun 11.0 04:22:30 11° SSW 04:35:04 23° SSE 04:48:53 10° ESE visible
19 Jun 8.2 20:20:46 10° NW 20:22:52 32° NW 20:22:52 32° NW visible
20 Jun 10.9 03:12:37 15° S 03:16:08 16° SSE 03:26:25 10° SE visible
20 Jun 11.0 05:20:33 10° SSW 05:37:09 35° SSE 05:53:12 10° E visible
20 Jun 8.0 19:08:28 10° NNW 19:11:33 23° NE 19:13:09 19° ENE visible
21 Jun 10.9 04:07:19 13° SSW 04:18:45 24° SSE 04:33:17 10° ESE visible
21 Jun 7.4 20:05:14 10° WNW 20:08:03 49° WNW 20:08:03 49° WNW visible
22 Jun 10.9 02:57:29 16° S 03:00:13 17° SSE 03:10:36 10° SE visible
22 Jun 10.8 05:03:38 10° SSW 05:20:23 39° SSE 05:37:20 10° E visible
22 Jun 7.4 18:52:27 10° NNW 18:55:47 32° NE 18:58:23 17° E visible
23 Jun 10.8 03:52:13 16° SSW 04:02:18 27° SSE 04:17:31 10° ESE visible
23 Jun 7.0 19:49:48 10° WNW 19:53:18 52° SW 19:53:18 52° SW visible
24 Jun 10.9 02:42:25 17° SSE 02:44:13 17° SSE 02:54:50 10° ESE visible
24 Jun 10.7 04:46:59 10° SSW 05:03:27 43° SSE 05:21:14 10° E visible
24 Jun 6.7 18:36:32 10° NW 18:40:03 47° NE 18:43:39 12° ESE visible
25 Jun 10.6 03:37:13 20° S 03:45:44 29° SSE 04:01:35 10° E visible
25 Jun 7.5 19:34:30 10° W 19:37:54 33° SSW 19:38:37 31° S visible
26 Jun 10.9 02:27:27 18° SSE 02:28:07 18° SSE 02:39:03 10° ESE visible
26 Jun 10.6 04:32:01 15° SSW 04:46:25 48° SE 05:04:56 10° ENE visible
26 Jun 6.2 18:20:40 10° NW 18:24:24 75° NE 18:28:18 10° ESE visible
27 Jun 10.5 03:22:17 25° S 03:29:03 32° SE 03:45:25 10° E visible
27 Jun 10.3 05:28:19 10° SW 05:46:39 75° SE 06:05:46 10° ENE visible
27 Jun 8.1 19:19:23 10° W 19:22:19 22° SSW 19:23:57 17° S visible
